Date String (YYYY-MM-DD hh:mm:ss) UTC,Instrument flags,Ambient pressure (hPa),Sample flow (lpm),Bypass flow (lpm),Sample temperature (°C),Ambient temperature (°C),ASC tube jacket temperature (°C),LED temperature (°C),Box temperature (°C),Sample RH (%),Span deviation,Mass concentration (μg/m³),Mass concentration (μg/m³),Mass concentration (μg/m³)
DateTimeUTC,F1_M11,P_M11,Q1_M11,Q2_M11,T1_M11,T2_M11,T3_M11,T4_M11,T5_M11,U1_M11,ZSPAN_M11,X0_M11,X2_M11,X1_M11
2022-09-21 13:00:00,,0832.4,4.99,0.00,30.5,29.2,00.0,39.3,32.3,25.7,0000.7,0015.89,0007.04,0005.67
2022-09-21 13:01:00,,0832.4,5.01,0.00,30.5,29.2,00.0,39.3,32.4,25.7,0000.7,0015.92,0007.03,0005.67
2022-09-21 13:02:00,,0832.4,4.99,0.00,30.6,29.3,00.0,39.3,32.4,25.7,0000.4,0015.55,0006.98,0005.68
2022-09-21 13:03:00,,0832.4,5.01,0.00,30.6,29.3,00.0,39.3,32.4,25.7,0000.3,0015.66,0006.99,0005.68
2022-09-21 13:04:00,,0832.4,4.99,0.00,30.6,29.3,00.0,39.3,32.4,25.6,0000.4,0016.38,0007.01,0005.67
2022-09-21 13:05:00,,0832.4,5.01,0.00,30.6,29.3,00.0,39.3,32.4,25.6,0000.2,0016.32,0007.00,0005.68
2022-09-21 13:06:00,,0832.5,4.99,0.00,30.6,29.4,00.0,39.3,32.5,25.6,0000.1,0014.73,0006.97,0005.66
2022-09-21 13:07:00,,0832.5,5.01,0.00,30.6,29.3,00.0,39.4,32.5,25.5,0000.5,0014.92,0006.95,0005.65
2022-09-21 13:08:00,,0832.5,4.99,0.00,30.7,29.3,00.0,39.4,32.5,25.5,0000.6,0015.16,0006.95,0005.64
2022-09-21 13:09:00,,0832.4,5.01,0.00,30.7,29.4,00.0,39.4,32.5,25.5,0000.5,0015.25,0006.94,0005.63
2022-09-21 13:10:00,,0832.5,4.99,0.00,30.7,29.4,00.0,39.4,32.5,25.4,0000.3,0014.73,0006.87,0005.60
2022-09-21 13:11:00,,0832.5,5.01,0.00,30.7,29.4,00.0,39.4,32.5,25.4,0000.4,0014.67,0006.83,0005.60
2022-09-21 13:12:00,,0832.5,4.99,0.00,30.7,29.4,00.0,39.5,32.6,25.3,0000.4,0014.82,0006.83,0005.60
2022-09-21 13:13:00,,0832.6,5.02,0.00,30.7,29.4,00.0,39.5,32.6,25.3,0000.5,0014.86,0006.84,0005.59
2022-09-21 13:14:00,,0832.5,4.98,0.00,30.7,29.4,00.0,39.5,32.6,25.3,0000.3,0014.62,0006.81,0005.59
2022-09-21 13:15:00,,0832.5,5.02,0.00,30.8,29.5,00.0,39.5,32.6,25.3,-000.0,0014.60,0006.81,0005.58
2022-09-21 13:16:00,,0832.6,4.99,0.00,30.8,29.5,00.0,39.5,32.6,25.3,0000.3,0015.20,0006.86,0005.58
2022-09-21 13:17:00,,0832.6,5.01,0.00,30.8,29.5,00.0,39.5,32.6,25.3,0000.7,0015.56,0006.98,0005.58
2022-09-21 13:18:00,,0832.6,4.99,0.00,30.8,29.5,00.0,39.5,32.6,25.2,0000.4,0015.79,0007.03,0005.57
2022-09-21 13:19:00,,0832.6,5.01,0.00,30.8,29.5,00.0,39.5,32.6,25.2,0000.3,0015.97,0007.02,0005.56
2022-09-21 13:20:00,,0832.6,5.01,0.00,30.8,29.5,00.0,39.6,32.6,25.3,0000.1,0015.95,0007.03,0005.56
2022-09-21 13:21:00,,0832.6,4.99,0.00,30.8,29.6,00.0,39.6,32.6,25.2,0000.2,0016.36,0007.03,0005.57
2022-09-21 13:22:00,,0832.6,5.01,0.00,30.9,29.6,00.0,39.6,32.7,25.1,0000.6,0016.38,0007.05,0005.57
2022-09-21 13:23:00,,0832.6,4.99,0.00,30.9,29.6,00.0,39.6,32.7,25.1,0000.8,0016.52,0007.04,0005.55
2022-09-21 13:24:00,,0832.7,5.01,0.00,30.9,29.6,00.0,39.6,32.7,25.1,0001.2,0016.83,0007.05,0005.54
2022-09-21 13:25:00,,0832.7,4.99,0.00,30.9,29.6,00.0,39.6,32.7,25.1,0001.6,0016.73,0007.07,0005.54
2022-09-21 13:26:00,,0832.7,5.01,0.00,30.9,29.6,00.0,39.6,32.7,24.9,0001.7,0015.87,0006.98,0005.53
2022-09-21 13:27:00,,0832.7,5.00,0.00,30.9,29.6,00.0,39.6,32.7,24.9,0001.4,0014.96,0006.88,0005.51
2022-09-21 13:28:00,,0832.8,4.99,0.00,30.9,28.8,00.0,39.6,32.7,24.8,0001.3,0014.64,0006.78,0005.51
2022-09-21 13:29:00,,0832.7,5.00,0.00,30.9,27.4,00.0,39.6,32.6,24.8,0001.0,0014.37,0006.83,0005.53
2022-09-21 13:30:00,,0832.7,4.99,0.00,30.8,27.0,00.0,39.5,32.5,24.9,0000.6,0013.93,0006.87,0005.54
2022-09-21 13:31:00,,0832.7,5.00,0.00,30.7,27.2,00.0,39.5,32.3,25.0,0001.0,0013.52,0006.87,0005.54
2022-09-21 13:32:00,,0832.7,5.00,0.00,30.6,27.6,00.0,39.4,32.2,25.2,0000.8,0013.30,0006.90,0005.55
2022-09-21 13:33:00,,0832.8,5.00,0.00,30.6,27.9,00.0,39.4,32.2,25.2,0000.5,0013.52,0006.93,0005.57
2022-09-21 13:34:00,,0832.7,5.00,0.00,30.5,28.2,00.0,39.4,32.2,25.3,-000.0,0014.04,0006.96,0005.60
2022-09-21 13:35:00,,0832.7,5.00,0.00,30.5,28.4,00.0,39.3,32.2,25.2,-000.4,0014.49,0007.00,0005.64
2022-09-21 13:36:00,,0832.8,4.99,0.00,30.5,28.6,00.0,39.3,32.2,25.3,-000.4,0014.66,0007.03,0005.66
2022-09-21 13:37:00,,0832.8,5.01,0.00,30.5,28.7,00.0,39.3,32.2,25.4,-000.1,0014.84,0007.07,0005.67
2022-09-21 13:38:00,,0832.9,4.99,0.00,30.5,28.7,00.0,39.3,32.2,25.4,-000.2,0015.07,0007.14,0005.69
2022-09-21 13:39:00,,0832.8,5.01,0.00,30.5,28.8,00.0,39.3,32.2,25.4,0000.1,0015.37,0007.22,0005.72
2022-09-21 13:40:00,,0832.8,4.99,0.00,30.5,28.9,00.0,39.3,32.3,25.5,0000.7,0015.23,0007.21,0005.74
2022-09-21 13:41:00,,0832.8,5.01,0.00,30.5,29.0,00.0,39.3,32.3,25.4,0001.3,0015.30,0007.25,0005.75
2022-09-21 13:42:00,,0832.9,5.00,0.00,30.5,29.0,00.0,39.3,32.3,25.4,0001.0,0015.64,0007.24,0005.76
2022-09-21 13:43:00,,0832.9,5.00,0.00,30.5,29.1,00.0,39.3,32.3,25.3,0001.6,0015.56,0007.32,0005.77
2022-09-21 13:44:00,,0832.8,5.00,0.00,30.5,29.1,00.0,39.3,32.4,25.3,0001.5,0015.18,0007.34,0005.77
2022-09-21 13:45:00,,0832.9,4.99,0.00,30.5,29.1,00.0,39.3,32.4,25.3,0001.7,0014.75,0007.33,0005.77
2022-09-21 13:46:00,,0833.0,5.00,0.00,30.6,29.2,00.0,39.3,32.4,25.2,0002.1,0014.40,0007.35,0005.77
2022-09-21 13:47:00,,0833.0,5.00,0.00,30.6,29.2,00.0,39.3,32.4,25.2,0002.1,0014.05,0007.31,0005.78
2022-09-21 13:48:00,,0833.1,5.00,0.00,30.6,29.3,00.0,39.3,32.4,25.2,0002.0,0014.12,0007.31,0005.79
2022-09-21 13:49:00,,0833.1,5.00,0.00,30.6,29.2,00.0,39.4,32.4,25.2,0002.3,0014.51,0007.28,0005.79
2022-09-21 13:50:00,,0833.1,4.99,0.00,30.6,29.3,00.0,39.4,32.5,25.2,0001.9,0014.20,0007.23,0005.79
2022-09-21 13:51:00,,0833.0,5.00,0.00,30.6,29.3,00.0,39.4,32.5,25.2,0001.6,0014.05,0007.18,0005.78
2022-09-21 13:52:00,,0833.0,5.00,0.00,30.7,29.4,00.0,39.4,32.5,25.1,0001.3,0013.83,0007.11,0005.80
2022-09-21 13:53:00,,0833.0,4.99,0.00,30.7,29.4,00.0,39.4,32.5,25.1,0001.4,0013.98,0007.07,0005.82
2022-09-21 13:54:00,,0833.0,5.01,0.00,30.7,29.4,00.0,39.4,32.5,25.1,0001.3,0014.02,0007.05,0005.83
2022-09-21 13:55:00,,0833.0,4.99,0.00,30.7,29.4,00.0,39.4,32.5,25.1,0001.6,0014.90,0007.06,0005.84
2022-09-21 13:56:00,,0833.0,5.00,0.00,30.7,29.4,00.0,39.4,32.5,25.1,0001.6,0014.87,0007.09,0005.85
2022-09-21 13:57:00,,0833.0,5.00,0.00,30.7,29.4,00.0,39.5,32.6,25.0,0001.2,0015.21,0007.07,0005.85
2022-09-21 13:58:00,,0833.0,5.00,0.00,30.8,29.5,00.0,39.5,32.6,25.0,0001.2,0015.84,0007.06,0005.86
2022-09-21 13:59:00,,0833.0,5.00,0.00,30.8,29.4,00.0,39.5,32.5,25.0,0001.3,0015.84,0007.08,0005.88
